Location: Alladorf
(49.9620°N, 11.3790°E)
Time: 21:00:18
(UTC+00:00)

NOSS 3-2 (C) - Pass Details

Date: 29 November 2020
Orbit: 789 x 1424 km, 63.4° (Epoch: 09 January)

Event Time Altitude Azimuth Distance (km) Brightness Sun altitude
Exits shadow 04:00:11 43° 236° (SW) 1,762 4.4 -26.3°
Drops below altitude 10° 04:07:44 10° 174° (S) 3,456 6.5 -25.1°
Sets 04:10:53 0° 168° (SSE) 4,465 7.1 -24.6°
